Weather History for Poughkeepsie, NY

Change the Weather History Date:

Monday, December 31, 2012

  Actual Average Record
Temperature  
Mean Temperature 24 °F 27 °F  
Max Temperature 37 °F 36 °F 63 °F (1965)
Min Temperature 11 °F 17 °F -13 °F (1963)
Degree Days  
Heating Degree Days 41 38  
Month to date heating degree days 904 1049  
Since 1 July heating degree days 2050 2329  
Cooling Degree Days 0 0  
Month to date cooling degree days 0 0  
Year to date cooling degree days 895 672  
Moisture  
Dew Point 17 °F    
Average Humidity 66    
Maximum Humidity 84    
Minimum Humidity 48    
Precipitation  
Precipitation 0.00 in 0.10 in 1.20 in (1972)
Month to date precipitation 4.22 3.53  
Year to date precipitation 36.48 46.53  
Sea Level Pressure  
Sea Level Pressure 30.02 in    
Wind  
Wind Speed 7 mph (SW)    
Max Wind Speed 20 mph    
Max Gust Speed 26 mph    
Visibility 10 miles    
Events      
T = Trace of Precipitation, MM = Missing Value Source: NWS Daily Summary

Daily Weather History Graph

Daily Weather History Graph

Search for Another Location

Airport:

Trip Planner

Search our weather history database for the weather conditions in past years. The results will help you decide how hot, cold, wet, or windy it might be!

Date:

Astronomy

Dec. 31, 2012 Rise Set
Actual Time 7:22 AM EST 4:35 PM EST
Civil Twilight 6:50 AM EST 5:06 PM EST
Nautical Twilight 6:16 AM EST 5:41 PM EST
Astronomical Twilight 5:42 AM EST 6:15 PM EST
Moon 8:06 PM EST (12/31) 8:59 AM EST (12/31)
Length of Visible Light 10h 15m
Length of Day
9h 13m
Waning Gibbous, 90% of the Moon is Illuminated
Dec 31
Waning Gibbous
Jan 4
Last Quarter
Jan 11
New
Jan 18
First Quarter
Jan 26
Full

Hourly Weather History & Observations

Time (EST) Temp. Windchill Dew Point Humidity Pressure Visibility Wind Dir Wind Speed Gust Speed Precip Events Conditions
12:53 AM 17.1 °F 10.0 °F 9.0 °F 71% 30.13 in 10.0 mi West 4.6 mph - N/A   Clear
1:53 AM 14.0 °F - 9.0 °F 80% 30.13 in 10.0 mi Calm Calm - N/A   Clear
2:53 AM 12.9 °F - 8.1 °F 81% 30.14 in 10.0 mi Calm Calm - N/A   Clear
3:53 AM 12.0 °F 5.9 °F 7.0 °F 80% 30.11 in 10.0 mi SSW 3.5 mph - N/A   Clear
4:53 AM 24.1 °F 18.2 °F 12.9 °F 62% 30.12 in 10.0 mi SSW 4.6 mph - N/A   Partly Cloudy
5:53 AM 26.1 °F 16.8 °F 14.0 °F 60% 30.11 in 10.0 mi WSW 9.2 mph - N/A   Partly Cloudy
6:53 AM 28.0 °F 18.6 °F 16.0 °F 61% 30.10 in 10.0 mi WSW 10.4 mph - N/A   Mostly Cloudy
7:53 AM 28.9 °F 18.6 °F 17.1 °F 61% 30.12 in 10.0 mi WSW 12.7 mph - N/A   Mostly Cloudy
8:53 AM 30.0 °F 21.7 °F 17.1 °F 59% 30.11 in 10.0 mi WSW 9.2 mph - N/A   Clear
9:53 AM 30.0 °F 18.7 °F 18.0 °F 61% 30.12 in 10.0 mi WSW 16.1 mph - N/A   Clear
10:53 AM 32.0 °F 21.2 °F 18.0 °F 56% 30.10 in 10.0 mi WSW 16.1 mph - N/A   Clear
11:53 AM 33.1 °F 25.5 °F 18.0 °F 54% 30.06 in 10.0 mi SW 9.2 mph - N/A   Clear
12:53 PM 34.0 °F 28.0 °F 18.0 °F 52% 30.02 in 10.0 mi WSW 6.9 mph - N/A   Clear
1:53 PM 36.0 °F 32.1 °F 19.0 °F 50% 29.99 in 10.0 mi SW 4.6 mph - N/A   Clear
1:54 PM 35.6 °F 31.7 °F 19.4 °F 52% 29.99 in 10.0 mi SSW 4.6 mph - N/A   Clear
2:53 PM 36.0 °F 33.3 °F 19.0 °F 50% 29.96 in 10.0 mi Variable 3.5 mph - N/A   Clear
3:53 PM 37.0 °F 33.3 °F 19.0 °F 48% 29.94 in 10.0 mi SW 4.6 mph - N/A   Clear
4:53 PM 36.0 °F 29.0 °F 21.0 °F 55% 29.92 in 10.0 mi SW 9.2 mph - N/A   Clear
5:53 PM 36.0 °F 27.5 °F 19.9 °F 52% 29.92 in 10.0 mi SW 12.7 mph - N/A   Clear
6:53 PM 35.1 °F 27.4 °F 19.9 °F 54% 29.91 in 10.0 mi SW 10.4 mph - N/A   Scattered Clouds
7:53 PM 35.1 °F 28.6 °F 19.9 °F 54% 29.89 in 10.0 mi SW 8.1 mph - N/A   Overcast
8:53 PM 34.0 °F 29.8 °F 21.0 °F 59% 29.88 in 10.0 mi SW 4.6 mph - N/A   Overcast
10:53 PM 35.1 °F 29.3 °F 21.0 °F 57% 29.85 in 10.0 mi WSW 6.9 mph - N/A   Overcast
11:53 PM 36.0 °F 32.1 °F 19.9 °F 52% 29.84 in 10.0 mi SW 4.6 mph - N/A   Overcast